Location: Boncourt
(49.6160°N, 3.9448°E)
Time: 06:51:26
(UTC+00:00)

Lacrosse 4 Rocket - Pass Details

Date: 09 February 2023
Orbit: 536 x 607 km, 68.0° (Epoch: 30 March)

Event Time Altitude Azimuth Distance (km) Brightness Sun altitude
Rises 17:50:49 0° 332° (NNW) 2,851 5.2 -9.8°
Maximum altitude 17:56:28 15° 31° (NNE) 1,639 3.4 -10.7°
Enters shadow 17:57:58 13° 53° (NE) 1,742 3.3 -11.0°
